When you browse on this site, cookies collect data to enhance your experience and personalize the content and advertising you see.
Visit our Privacy Policy to learn more. By continuing to use the site, you agree to this use of cookies and data.

Hourly Weather Tskhaltubo

Today, 10 August, Monday

Time Temperature Precipitation Wind Pressure Humidity
00:00 +23°C° 0 mm 1 mps 739 mmHg 88%
01:00 +23°C° 0 mm 1 mps 739 mmHg 86%
02:00 +23°C° 0 mm 1 mps 739 mmHg 83%
03:00 +23°C° 0 mm 2 mps 739 mmHg 81%
04:00 +23°C° 0 mm 2 mps 739 mmHg 76%
05:00 +23°C° 0 mm 2 mps 739 mmHg 71%
06:00 +23°C° 0 mm 2 mps 739 mmHg 66%
07:00 +25°C° 0.1 mm 2 mps 739 mmHg 59%
08:00 +28°C° 0.1 mm 2 mps 739 mmHg 51%
09:00 +30°C° 0.1 mm 2 mps 739 mmHg 44%
10:00 +32°C° 0.1 mm 2 mps 739 mmHg 41%
11:00 +34°C° 0.1 mm 2 mps 739 mmHg 38%
12:00 +36°C° 0.1 mm 2 mps 739 mmHg 35%
13:00 +35°C° 0 mm 3 mps 739 mmHg 39%
14:00 +35°C° 0 mm 4 mps 738 mmHg 44%
15:00 +35°C° 0 mm 5 mps 738 mmHg 48%
16:00 +33°C° 0.1 mm 4 mps 739 mmHg 56%
17:00 +32°C° 0.1 mm 4 mps 739 mmHg 65%
18:00 +29°C° 0.1 mm 3 mps 739 mmHg 73%
19:00 +27°C° 0.3 mm 2 mps 739 mmHg 80%
20:00 +26°C° 0.3 mm 1 mps 740 mmHg 87%
21:00 +22°C° 0.3 mm 0 mps 740 mmHg 93%
22:00 +22°C° 0.4 mm 0 mps 740 mmHg 93%
23:00 +24°C° 0.4 mm 1 mps 740 mmHg 93%

Tomorrow, 11 August, Tuesday

Time Temperature Precipitation Wind Pressure Humidity
00:00 +24°C° 0.4 mm 1 mps 741 mmHg 93%
01:00 +23°C° 1.1 mm 1 mps 741 mmHg 92%
02:00 +23°C° 1.1 mm 1 mps 741 mmHg 91%
03:00 +23°C° 1.1 mm 2 mps 740 mmHg 90%
04:00 +23°C° 0.5 mm 2 mps 740 mmHg 90%
05:00 +21°C° 0.5 mm 2 mps 740 mmHg 89%
06:00 +21°C° 0.5 mm 2 mps 741 mmHg 89%
07:00 +23°C° 0.1 mm 1 mps 740 mmHg 85%
08:00 +25°C° 0.1 mm 1 mps 740 mmHg 81%
09:00 +26°C° 0.1 mm 1 mps 740 mmHg 76%
10:00 +26°C° 0.5 mm 1 mps 740 mmHg 77%
11:00 +26°C° 0.5 mm 2 mps 740 mmHg 78%
12:00 +25°C° 0.5 mm 3 mps 740 mmHg 79%
13:00 +25°C° 1.1 mm 2 mps 740 mmHg 84%
14:00 +24°C° 1.1 mm 1 mps 740 mmHg 89%
15:00 +23°C° 1.1 mm 1 mps 740 mmHg 94%
16:00 +24°C° 0.7 mm 1 mps 740 mmHg 93%
17:00 +24°C° 0.7 mm 1 mps 741 mmHg 93%
18:00 +24°C° 0.7 mm 1 mps 741 mmHg 92%
19:00 +23°C° 0.3 mm 1 mps 741 mmHg 93%
20:00 +23°C° 0.3 mm 1 mps 741 mmHg 93%
21:00 +22°C° 0.3 mm 1 mps 742 mmHg 93%
22:00 +22°C° 1.2 mm 1 mps 742 mmHg 93%
23:00 +22°C° 1.2 mm 1 mps 742 mmHg 93%

Day after tomorrow, 12 August, Wednesday

Time Temperature Precipitation Wind Pressure Humidity
00:00 +22°C° 1.2 mm 1 mps 742 mmHg 94%
01:00 +22°C° 1.1 mm 1 mps 742 mmHg 94%
02:00 +22°C° 1.1 mm 1 mps 742 mmHg 94%
03:00 +22°C° 1.1 mm 1 mps 741 mmHg 94%
04:00 +22°C° 1.3 mm 1 mps 742 mmHg 94%
05:00 +22°C° 1.3 mm 1 mps 742 mmHg 94%
06:00 +22°C° 1.3 mm 1 mps 742 mmHg 94%
07:00 +23°C° 0.4 mm 1 mps 742 mmHg 92%
08:00 +23°C° 0.4 mm 1 mps 742 mmHg 89%
09:00 +24°C° 0.4 mm 1 mps 741 mmHg 86%
10:00 +26°C° 0.4 mm 2 mps 742 mmHg 78%
11:00 +27°C° 0.4 mm 2 mps 742 mmHg 71%
12:00 +29°C° 0.4 mm 3 mps 742 mmHg 63%
13:00 +29°C° 0.2 mm 3 mps 741 mmHg 64%
14:00 +29°C° 0.2 mm 3 mps 741 mmHg 65%
15:00 +29°C° 0.2 mm 4 mps 741 mmHg 66%
16:00 +28°C° 0.2 mm 3 mps 741 mmHg 70%
17:00 +28°C° 0.2 mm 3 mps 741 mmHg 74%
18:00 +27°C° 0.2 mm 2 mps 741 mmHg 78%
19:00 +25°C° 0 mm 2 mps 742 mmHg 83%
20:00 +24°C° 0 mm 1 mps 742 mmHg 88%
21:00 +20°C° 0 mm 0 mps 742 mmHg 93%
22:00 +22°C° 0 mm 1 mps 742 mmHg 94%
23:00 +22°C° 0 mm 1 mps 742 mmHg 94%

13 August, Thursday

Time Temperature Precipitation Wind Pressure Humidity
00:00 +22°C° 0 mm 1 mps 742 mmHg 94%
01:00 +21°C° 0 mm 1 mps 742 mmHg 94%
02:00 +21°C° 0 mm 1 mps 742 mmHg 93%
03:00 +21°C° 0 mm 1 mps 742 mmHg 93%
04:00 +21°C° 0 mm 1 mps 742 mmHg 93%
05:00 +21°C° 0 mm 1 mps 742 mmHg 92%
06:00 +21°C° 0 mm 1 mps 742 mmHg 91%
07:00 +23°C° 0.1 mm 1 mps 742 mmHg 86%
08:00 +25°C° 0.1 mm 1 mps 742 mmHg 81%
09:00 +25°C° 0.1 mm 0 mps 741 mmHg 75%
10:00 +27°C° 0.5 mm 1 mps 741 mmHg 74%
11:00 +28°C° 0.5 mm 2 mps 741 mmHg 73%
12:00 +28°C° 0.5 mm 3 mps 741 mmHg 72%
13:00 +28°C° 0.8 mm 3 mps 741 mmHg 75%
14:00 +27°C° 0.8 mm 3 mps 741 mmHg 78%
15:00 +27°C° 0.8 mm 4 mps 740 mmHg 81%
16:00 +26°C° 0.8 mm 3 mps 741 mmHg 84%
17:00 +26°C° 0.8 mm 3 mps 741 mmHg 87%
18:00 +25°C° 0.8 mm 2 mps 741 mmHg 90%
19:00 +24°C° 0.4 mm 1 mps 741 mmHg 92%
20:00 +23°C° 0.4 mm 1 mps 741 mmHg 94%
21:00 +20°C° 0.4 mm 0 mps 742 mmHg 95%
22:00 +20°C° 0.3 mm 0 mps 742 mmHg 95%
23:00 +22°C° 0.3 mm 1 mps 742 mmHg 95%

14 August, Friday

Time Temperature Precipitation Wind Pressure Humidity
00:00 +21°C° 0.3 mm 1 mps 741 mmHg 96%
01:00 +21°C° 0.2 mm 1 mps 741 mmHg 95%
02:00 +21°C° 0.2 mm 1 mps 741 mmHg 95%
03:00 +21°C° 0.2 mm 1 mps 741 mmHg 95%
04:00 +21°C° 0.2 mm 1 mps 741 mmHg 95%
05:00 +21°C° 0.2 mm 1 mps 741 mmHg 95%
06:00 +21°C° 0.2 mm 1 mps 741 mmHg 94%
07:00 +22°C° 0.5 mm 1 mps 741 mmHg 91%
08:00 +23°C° 0.5 mm 1 mps 741 mmHg 87%
09:00 +25°C° 0.5 mm 1 mps 741 mmHg 84%
10:00 +25°C° 0.6 mm 2 mps 740 mmHg 82%
11:00 +26°C° 0.6 mm 2 mps 740 mmHg 80%
12:00 +26°C° 0.6 mm 3 mps 740 mmHg 78%
13:00 +26°C° 0.7 mm 3 mps 740 mmHg 79%
14:00 +26°C° 0.7 mm 3 mps 740 mmHg 79%
15:00 +26°C° 0.7 mm 4 mps 740 mmHg 80%
16:00 +26°C° 0.4 mm 3 mps 740 mmHg 82%
17:00 +25°C° 0.4 mm 2 mps 740 mmHg 85%
18:00 +24°C° 0.4 mm 2 mps 740 mmHg 87%
19:00 +23°C° 0.1 mm 2 mps 741 mmHg 89%
20:00 +22°C° 0.1 mm 1 mps 741 mmHg 90%
21:00 +21°C° 0.1 mm 1 mps 742 mmHg 92%
22:00 +20°C° 0.1 mm 1 mps 742 mmHg 92%
23:00 +20°C° 0.1 mm 1 mps 742 mmHg 92%

15 August, Saturday

Time Temperature Precipitation Wind Pressure Humidity
00:00 +20°C° 0.1 mm 1 mps 742 mmHg 92%
01:00 +19°C° 0.2 mm 1 mps 742 mmHg 93%
02:00 +19°C° 0.2 mm 1 mps 741 mmHg 93%
03:00 +19°C° 0.2 mm 1 mps 741 mmHg 93%
04:00 +19°C° 0.1 mm 1 mps 741 mmHg 93%
05:00 +19°C° 0.1 mm 1 mps 741 mmHg 94%
06:00 +19°C° 0.1 mm 1 mps 741 mmHg 94%
07:00 +20°C° 0.4 mm 1 mps 741 mmHg 90%
08:00 +22°C° 0.4 mm 1 mps 741 mmHg 86%
09:00 +23°C° 0.4 mm 1 mps 741 mmHg 83%
10:00 +24°C° 0.4 mm 2 mps 741 mmHg 79%
11:00 +25°C° 0.4 mm 2 mps 741 mmHg 75%
12:00 +26°C° 0.4 mm 3 mps 741 mmHg 71%
13:00 +26°C° 0.2 mm 3 mps 741 mmHg 70%
14:00 +26°C° 0.2 mm 4 mps 741 mmHg 69%
15:00 +26°C° 0.2 mm 4 mps 741 mmHg 68%
16:00 +25°C° 0.2 mm 4 mps 741 mmHg 73%
17:00 +24°C° 0.2 mm 3 mps 741 mmHg 77%
18:00 +24°C° 0.2 mm 3 mps 741 mmHg 82%
19:00 +21°C° 0.1 mm 2 mps 741 mmHg 86%
20:00 +21°C° 0.1 mm 1 mps 741 mmHg 90%
21:00 +18°C° 0.1 mm 0 mps 741 mmHg 94%
22:00 +19°C° 0.1 mm 1 mps 741 mmHg 94%
23:00 +19°C° 0.1 mm 1 mps 741 mmHg 93%
Show more